Brownsville, TX

11:13 AM CST on December 06, 2016 (GMT -0600)
Brownsville-South Padre I International

Weather History for KBRO - October, 2012

Change the Weather History Date:

Tuesday, October 30, 2012

  Actual Average Record
Temperature  
Mean Temperature 70 °F 74 °F  
Max Temperature 83 °F 83 °F 94 °F (1907)
Min Temperature 57 °F 64 °F 38 °F (1899)
Degree Days  
Heating Degree Days 0 0  
Month to date heating degree days 2 0  
Since 1 July heating degree days 2 0  
Cooling Degree Days 5 9  
Month to date cooling degree days 408 346  
Year to date cooling degree days 4420 3757  
Growing Degree Days 20 (Base 50)    
Moisture  
Dew Point 60 °F    
Average Humidity 71    
Maximum Humidity 93    
Minimum Humidity 49    
Precipitation  
Precipitation 0.00 in 0.08 in 6.55 in (2015)
Month to date precipitation 0.80 3.66  
Year to date precipitation 20.92 24.39  
Sea Level Pressure  
Sea Level Pressure 30.04 in    
Wind  
Wind Speed 6 mph (SE)    
Max Wind Speed 17 mph    
Max Gust Speed 23 mph    
Visibility 10 miles    
Events      
T = Trace of Precipitation, MM = Missing Value Source: NWS Daily Summary

Daily Weather History Graph

Daily Weather History Graph

Search for Another Location

Airport or City:

Trip Planner

Search our weather history database for the weather conditions in past years. The results will help you decide how hot, cold, wet, or windy it might be!

Date:

Astronomy

Oct. 30, 2012 Rise Set
Actual Time 7:37 AM CDT 6:48 PM CDT
Civil Twilight 7:13 AM CDT 7:12 PM CDT
Nautical Twilight 6:46 AM CDT 7:39 PM CDT
Astronomical Twilight 6:19 AM CDT 8:06 PM CDT
Moon 7:27 PM CDT (10/30) 8:18 AM CDT (10/30)
Length of Visible Light 11h 59m
Length of Day
11h 11m
Full, 99% of the Moon is Illuminated
Oct 30
Full
Nov 6
Last Quarter
Nov 13
New
Nov 20
First Quarter
Nov 28
Full

Hourly Weather History & Observations

Time (CDT) Temp. Heat Index Dew Point Humidity Pressure Visibility Wind Dir Wind Speed Gust Speed Precip Events Conditions
12:53 AM 61.0 °F - 55.9 °F 83% 30.12 in 10.0 mi Calm Calm - N/A   Clear
1:53 AM 60.1 °F - 55.9 °F 86% 30.12 in 10.0 mi ESE 3.5 mph - N/A   Clear
2:53 AM 59.0 °F - 55.9 °F 90% 30.10 in 10.0 mi Calm Calm - N/A   Clear
3:53 AM 57.9 °F - 54.0 °F 87% 30.08 in 10.0 mi Calm Calm - N/A   Clear
4:53 AM 57.9 °F - 54.0 °F 87% 30.06 in 10.0 mi Calm Calm - N/A   Clear
5:53 AM 57.9 °F - 55.0 °F 90% 30.06 in 10.0 mi Calm Calm - N/A   Clear
6:53 AM 57.9 °F - 54.0 °F 87% 30.06 in 10.0 mi Calm Calm - N/A   Clear
7:53 AM 59.0 °F - 55.0 °F 87% 30.07 in 10.0 mi East 3.5 mph - N/A   Clear
8:53 AM 66.9 °F - 61.0 °F 81% 30.08 in 10.0 mi Calm Calm - N/A   Clear
9:53 AM 75.0 °F - 61.0 °F 62% 30.08 in 10.0 mi ESE 6.9 mph - N/A   Clear
10:53 AM 78.1 °F - 59.0 °F 52% 30.08 in 10.0 mi SE 10.4 mph - N/A   Clear
11:53 AM 81.0 °F 81.3 °F 59.0 °F 47% 30.07 in 10.0 mi SE 4.6 mph - N/A   Scattered Clouds
12:53 PM 81.0 °F 81.6 °F 60.1 °F 49% 30.04 in 10.0 mi ESE 6.9 mph - N/A   Mostly Cloudy
1:53 PM 81.0 °F 81.7 °F 61.0 °F 50% 30.01 in 10.0 mi SE 12.7 mph 17.3 mph N/A   Overcast
2:53 PM 82.0 °F 83.0 °F 62.1 °F 51% 29.99 in 10.0 mi SSE 11.5 mph 21.9 mph N/A   Overcast
3:53 PM 81.0 °F 81.9 °F 62.1 °F 52% 29.98 in 10.0 mi SE 10.4 mph - N/A   Mostly Cloudy
4:53 PM 80.1 °F 81.5 °F 63.0 °F 56% 29.97 in 10.0 mi SE 12.7 mph - N/A   Partly Cloudy
5:53 PM 77.0 °F - 63.0 °F 62% 29.97 in 10.0 mi SE 11.5 mph 23.0 mph N/A   Partly Cloudy
6:53 PM 75.0 °F - 64.0 °F 69% 29.98 in 10.0 mi SE 12.7 mph - N/A   Clear
7:53 PM 73.0 °F - 64.0 °F 73% 29.99 in 10.0 mi SE 5.8 mph - N/A   Partly Cloudy
8:53 PM 71.1 °F - 64.0 °F 78% 30.00 in 10.0 mi SE 5.8 mph - N/A   Scattered Clouds
9:53 PM 69.1 °F - 64.0 °F 84% 30.01 in 10.0 mi SE 4.6 mph - N/A   Clear
10:53 PM 69.1 °F - 64.0 °F 84% 30.01 in 10.0 mi SE 4.6 mph - N/A   Partly Cloudy
11:53 PM 66.9 °F - 64.0 °F 90% 30.00 in 10.0 mi SSE 5.8 mph - N/A   Clear